Consulta los datos en tiempo real de la estación municipal de St. Hilari Sacalm
| Hora UTC | 07:20 |
|---|---|
| Temperatura | 14.3 ºC |
| Humedad | 81.0 % |
| Presión | 1013.1 hPa |
| Pluja | 0.0 mm |
| Velocidad viento | 11.4 km/h |
| Dirección viento | W |
| Radiación solar | 448.3 W/m² |
| Temperatura (ºC) | Humedad (%) | Presión (hPa) | Velocidad viento (km/h) | Precipitación (mm) | Radiación solar (W/m²) | |||||||||||||
|---|---|---|---|---|---|---|---|---|---|---|---|---|---|---|---|---|---|---|
| Hora UTC | Aire | Humedad | Presión | Vel. | Dir. | Vel. Max | Dir. | Intent. máx 5 min. | Rad. Sol. | |||||||||
| 00:05 | 10.9 | 96.9 | 1014.4 | 0.0 | NNE | 0.0 | S | 0.0 | 0.1 | |||||||||
| 00:10 | 10.9 | 96.9 | 1014.4 | 0.0 | NNE | 0.0 | SSW | 0.0 | 0.1 | |||||||||
| 00:15 | 10.9 | 96.9 | 1014.4 | 0.0 | NNE | 0.0 | SSW | 0.0 | 0.1 | |||||||||
| 00:20 | 10.8 | 96.8 | 1014.3 | 0.0 | NNE | 0.0 | WSW | 0.0 | 0.1 | |||||||||
| 00:25 | 10.8 | 96.9 | 1014.2 | 0.0 | NNE | 0.0 | W | 0.0 | 0.1 | |||||||||
| 00:30 | 10.7 | 96.9 | 1014.2 | 0.0 | NNE | 0.0 | W | 0.0 | 0.1 | |||||||||
| 00:35 | 10.7 | 97.0 | 1014.1 | 0.0 | NNE | 0.0 | W | 0.0 | 0.1 | |||||||||
| 00:40 | 10.7 | 97.0 | 1014.2 | 0.0 | WSW | 3.4 | WSW | 0.0 | 0.1 | |||||||||
| 00:45 | 10.7 | 97.1 | 1014.2 | 0.0 | NNE | 0.0 | WNW | 0.0 | 0.1 | |||||||||
| 00:50 | 10.7 | 97.0 | 1014.2 | 0.0 | NNE | 0.0 | W | 0.0 | 0.1 | |||||||||
| 00:55 | 10.5 | 97.0 | 1014.1 | 0.0 | NNE | 0.0 | WNW | 0.0 | 0.1 | |||||||||
| 01:00 | 10.5 | 97.0 | 1014.0 | 0.0 | NNE | 0.0 | WSW | 0.0 | 0.1 | |||||||||
| 01:05 | 10.5 | 97.2 | 1014.0 | 0.0 | NNE | 0.0 | S | 0.0 | 0.1 | |||||||||
| 01:10 | 10.5 | 97.2 | 1014.0 | 0.0 | NNE | 0.0 | WNW | 0.0 | 0.1 | |||||||||
| 01:15 | 10.5 | 97.2 | 1013.9 | 0.0 | NNE | 0.0 | SW | 0.0 | 0.1 | |||||||||
| 01:20 | 10.4 | 97.0 | 1014.0 | 0.2 | W | 6.1 | W | 0.0 | 0.1 | |||||||||
| 01:25 | 10.3 | 97.0 | 1013.9 | 0.7 | WNW | 8.8 | NW | 0.0 | 0.1 | |||||||||
| 01:30 | 10.1 | 96.9 | 1013.8 | 1.0 | WNW | 11.5 | WNW | 0.0 | 0.1 | |||||||||
| 01:35 | 10.1 | 97.1 | 1013.8 | 0.2 | W | 8.8 | W | 0.0 | 0.1 | |||||||||
| 01:40 | 10.1 | 97.1 | 1013.9 | 0.8 | W | 11.5 | W | 0.0 | 0.1 | |||||||||
| 01:45 | 10.1 | 97.1 | 1014.0 | 0.6 | WNW | 8.8 | W | 0.0 | 0.1 | |||||||||
| 01:50 | 10.0 | 97.1 | 1014.0 | 2.3 | W | 11.5 | WNW | 0.0 | 0.1 | |||||||||
| 01:55 | 10.0 | 97.3 | 1013.9 | 2.2 | W | 14.2 | WSW | 0.0 | 0.1 | |||||||||
| 02:00 | 10.0 | 97.2 | 1013.7 | 0.0 | NNE | 0.0 | SW | 0.0 | 0.1 | |||||||||
| 02:05 | 10.0 | 97.2 | 1013.8 | 0.1 | WSW | 6.1 | SSW | 0.0 | 0.1 | |||||||||
| 02:10 | 10.0 | 97.2 | 1013.7 | 0.1 | WNW | 6.1 | W | 0.0 | 0.1 | |||||||||
| 02:15 | 10.0 | 97.2 | 1013.7 | 0.0 | WNW | 3.4 | WNW | 0.0 | 0.1 | |||||||||
| 02:20 | 10.2 | 97.4 | 1013.7 | 0.4 | WNW | 8.8 | W | 0.0 | 0.1 | |||||||||
| 02:25 | 10.3 | 97.4 | 1013.7 | 1.4 | NW | 11.5 | NW | 0.0 | 0.1 | |||||||||
| 02:30 | 10.4 | 97.3 | 1013.7 | 0.9 | NW | 14.2 | NW | 0.0 | 0.1 | |||||||||
| 02:35 | 10.4 | 97.1 | 1013.6 | 0.0 | WNW | 3.4 | N | 0.0 | 0.1 | |||||||||
| 02:40 | 10.4 | 97.1 | 1013.6 | 0.3 | NW | 8.8 | W | 0.0 | 0.1 | |||||||||
| 02:45 | 10.4 | 97.1 | 1013.7 | 0.7 | NW | 11.5 | WNW | 0.0 | 0.1 | |||||||||
| 02:50 | 10.5 | 97.1 | 1013.7 | 0.0 | NNW | 3.4 | NNW | 0.0 | 0.1 | |||||||||
| 02:55 | 10.5 | 97.1 | 1013.7 | 0.0 | NNE | 0.0 | WNW | 0.0 | 0.1 | |||||||||
| 03:00 | 10.5 | 97.0 | 1013.6 | 0.0 | NW | 3.4 | NNW | 0.0 | 0.1 | |||||||||
| 03:05 | 10.6 | 97.0 | 1013.5 | 0.0 | NNE | 0.0 | NNW | 0.0 | 0.1 | |||||||||
| 03:10 | 10.6 | 97.0 | 1013.5 | 1.1 | NNW | 14.2 | WNW | 0.0 | 0.1 | |||||||||
| 03:15 | 10.7 | 97.1 | 1013.5 | 0.5 | NW | 8.8 | WNW | 0.0 | 0.1 | |||||||||
| 03:20 | 10.8 | 97.0 | 1013.6 | 1.2 | NW | 11.5 | WNW | 0.0 | 0.1 | |||||||||
| 03:25 | 10.9 | 96.8 | 1013.6 | 0.3 | NW | 8.8 | NW | 0.0 | 0.1 | |||||||||
| 03:30 | 10.9 | 96.6 | 1013.6 | 0.1 | WNW | 6.1 | WNW | 0.0 | 0.1 | |||||||||
| 03:35 | 11.0 | 96.5 | 1013.6 | 0.4 | WNW | 8.8 | WNW | 0.0 | 0.1 | |||||||||
| 03:40 | 11.0 | 96.4 | 1013.6 | 0.0 | NNE | 0.0 | WNW | 0.0 | 0.1 | |||||||||
| 03:45 | 11.1 | 96.3 | 1013.5 | 0.1 | W | 6.1 | W | 0.0 | 0.2 | |||||||||
| 03:50 | 11.1 | 96.2 | 1013.5 | 0.2 | W | 6.1 | WNW | 0.0 | 0.1 | |||||||||
| 03:55 | 11.1 | 96.1 | 1013.4 | 0.0 | NNW | 6.1 | N | 0.0 | 0.1 | |||||||||
| 04:00 | 11.1 | 95.8 | 1013.3 | 0.2 | NW | 8.8 | NNW | 0.0 | 0.1 | |||||||||
| 04:05 | 11.1 | 95.8 | 1013.2 | 0.0 | NNE | 0.0 | W | 0.0 | 0.1 | |||||||||
| 04:10 | 11.1 | 95.8 | 1013.2 | 0.0 | NNE | 0.0 | SSW | 0.0 | 0.1 | |||||||||
| 04:15 | 11.1 | 95.8 | 1013.2 | 0.0 | NNE | 0.0 | WSW | 0.0 | 0.1 | |||||||||
| 04:20 | 11.1 | 95.8 | 1013.2 | 0.0 | NNE | 0.0 | WSW | 0.0 | 0.2 | |||||||||
| 04:25 | 11.2 | 95.8 | 1013.2 | 0.0 | NNE | 0.0 | SSW | 0.0 | 0.2 | |||||||||
| 04:30 | 11.2 | 95.8 | 1013.1 | 0.0 | NNE | 0.0 | SW | 0.0 | 0.2 | |||||||||
| 04:35 | 11.3 | 95.8 | 1013.0 | 0.1 | SW | 6.1 | SW | 0.0 | 0.5 | |||||||||
| 04:40 | 11.4 | 95.8 | 1013.0 | 0.3 | S | 8.8 | S | 0.0 | 1.1 | |||||||||
| 04:45 | 11.4 | 95.4 | 1013.0 | 0.0 | NNE | 0.0 | WSW | 0.0 | 2.0 | |||||||||
| 04:50 | 11.2 | 95.0 | 1013.1 | 0.1 | NW | 6.1 | NW | 0.0 | 3.3 | |||||||||
| 04:55 | 11.1 | 94.7 | 1013.1 | 0.6 | NW | 8.8 | NNW | 0.0 | 5.1 | |||||||||
| 05:00 | 11.0 | 94.7 | 1013.1 | 1.3 | NW | 14.2 | NNW | 0.0 | 7.1 | |||||||||
| 05:05 | 10.9 | 94.5 | 1013.1 | 3.7 | NW | 14.2 | WNW | 0.0 | 8.5 | |||||||||
| 05:10 | 10.9 | 94.4 | 1013.0 | 2.7 | NW | 14.2 | WSW | 0.0 | 9.7 | |||||||||
| 05:15 | 10.9 | 94.3 | 1013.1 | 1.6 | NW | 14.2 | WNW | 0.0 | 14.5 | |||||||||
| 05:20 | 10.8 | 94.2 | 1013.1 | 0.0 | NW | 3.4 | WNW | 0.0 | 24.7 | |||||||||
| 05:25 | 10.8 | 94.3 | 1013.1 | 2.8 | NW | 16.9 | NW | 0.0 | 33.2 | |||||||||
| 05:30 | 10.9 | 94.4 | 1013.1 | 3.7 | WNW | 14.2 | WSW | 0.0 | 45.4 | |||||||||
| 05:35 | 11.0 | 94.3 | 1013.0 | 4.3 | WNW | 19.6 | WNW | 0.0 | 65.5 | |||||||||
| 05:40 | 11.1 | 94.0 | 1013.1 | 4.9 | WNW | 14.2 | WNW | 0.0 | 130.9 | |||||||||
| 05:45 | 11.4 | 93.3 | 1013.0 | 4.0 | NW | 16.9 | WNW | 0.0 | 110.7 | |||||||||
| 05:50 | 11.6 | 93.0 | 1013.1 | 6.6 | NW | 16.9 | W | 0.0 | 181.4 | |||||||||
| 05:55 | 12.0 | 92.3 | 1013.0 | 2.2 | NW | 14.2 | W | 0.0 | 177.0 | |||||||||
| 06:00 | 12.3 | 91.0 | 1013.0 | 5.4 | NW | 19.6 | NW | 0.0 | 173.1 | |||||||||
| 06:05 | 12.5 | 89.6 | 1013.0 | 7.3 | NW | 22.3 | WNW | 0.0 | 189.7 | |||||||||
| 06:10 | 12.6 | 88.3 | 1013.0 | 10.2 | NW | 27.7 | W | 0.0 | 211.5 | |||||||||
| 06:15 | 12.7 | 88.2 | 1013.0 | 3.2 | NW | 16.9 | WNW | 0.0 | 228.1 | |||||||||
| 06:20 | 13.2 | 87.5 | 1013.1 | 5.4 | W | 25.0 | WSW | 0.0 | 241.4 | |||||||||
| 06:25 | 13.6 | 85.5 | 1013.1 | 6.8 | W | 25.0 | WNW | 0.0 | 260.2 | |||||||||
| 06:30 | 13.9 | 83.6 | 1013.0 | 8.0 | W | 27.7 | W | 0.0 | 280.6 | |||||||||
| 06:35 | 14.2 | 82.2 | 1013.0 | 7.9 | W | 25.0 | W | 0.0 | 302.1 | |||||||||
| 06:40 | 14.4 | 81.2 | 1013.0 | 8.3 | WNW | 25.0 | WNW | 0.0 | 317.4 | |||||||||
| 06:45 | 14.4 | 80.7 | 1013.0 | 9.0 | WNW | 22.3 | W | 0.0 | 330.1 | |||||||||
| 06:50 | 14.2 | 81.3 | 1013.0 | 10.9 | WNW | 30.4 | WSW | 0.0 | 345.3 | |||||||||
| 06:55 | 14.0 | 81.8 | 1013.0 | 11.6 | WNW | 27.7 | WNW | 0.0 | 368.3 | |||||||||
| 07:00 | 13.9 | 82.0 | 1013.0 | 10.9 | WNW | 27.7 | W | 0.0 | 384.3 | |||||||||
| 07:05 | 13.9 | 82.8 | 1013.1 | 10.1 | WNW | 27.7 | W | 0.0 | 402.4 | |||||||||
| 07:10 | 14.1 | 82.1 | 1013.1 | 11.5 | WNW | 30.4 | WNW | 0.0 | 415.6 | |||||||||
| 07:15 | 14.2 | 81.7 | 1013.1 | 11.2 | WNW | 25.0 | NW | 0.0 | 428.4 | |||||||||
| 07:20 | 14.3 | 81.0 | 1013.1 | 11.4 | W | 30.4 | WNW | 0.0 | 448.3 | |||||||||
| Máxima | 14.4 | 97.4 | 1014.4 | 11.6 | WNW | 30.4 | WNW | 0.0 | 448.3 | |||||||||
| Mínima | 10.0 | 80.7 | 1013.0 | |||||||||||||||
| Total | 0.0 | |||||||||||||||||